Regional Weather Roundup
Issued by NWS Sterling, VA

Home | Current Version | Previous Version | Graphics & Text | Print | Product List | Glossary On
Versions: 1 2 3 4 5 6 7 8 9 10 11 12 13 14 15 16 17 18 19 20 21 22 23 24 25 26 27 28 29 30 31 32 33 34 35 36 37 38 39 40 41 42 43 44 45 46 47 48 49 50
161
ASUS41 KLWX 252111
RWRLWX

REGIONAL WEATHER ROUNDUP
NATIONAL WEATHER SERVICE BALTIMORE MD/WASHINGTON DC
500 PM EDT SUN JUN 25 2017

Note: "FAIR" indicates few or no clouds below 12,000 feet
with no significant weather and/or obstructions to visibility.
 TC=TEMPERATURE CELSIUS

 * =Non NWS site. Station does not report precipitation (e.g. rain,
    snow, etc.), thunder, or fog.

DCZ001-MDZ009-015-VAZ040>042-051-053>054-252200-
WASHINGTON METRO

CITY           SKY/WX    TMP DP  RH WIND       PRES   REMARKS
WASHINGTON NAT PTSUNNY   87  51  28 NW10      29.97F
DULLES         PTSUNNY   84  48  28 NW15G21   29.99F
ANDREWS AFB    MOSUNNY   84  50  30 NW8       29.97S
FT BELVOIR     SUNNY     86  52  30 W10       29.97S
QUANTICO       SUNNY     88  53  30 NW13      29.98S
COLLEGE PARK*  MOSUNNY   84  51  32 W9G17     29.97S
LEESBURG*      MOSUNNY  N/A N/A N/A NW15      30.01S
MANASSAS*      MOSUNNY   82  53  36 W6        29.99S
GAITHERSBURG*  MOSUNNY   81  53  37 NW10G21   30.01S

$$

MDZ006>007-011-014-252200-
BALTIMORE METRO

CITY           SKY/WX    TMP DP  RH WIND       PRES   REMARKS
BWI AIRPORT    MOSUNNY   85  52  32 W13       29.96F
MD SCIENCE CTR   N/A     87  48  25 MISG      29.96S
MARTIN STATE   MOSUNNY   88  52  29 W20       29.97S
ANNAPOLIS      SUNNY     83  57  41 VRB7      29.95F
FORT MEADE*    MOSUNNY   81  54  39 NW10G18   29.99S

$$

MDZ012-015-019>023-252200-
MARYLAND EASTERN SHORE

CITY           SKY/WX    TMP DP  RH WIND       PRES   REMARKS
OCEAN CITY     MOSUNNY   75  65  70 S7        29.98S
SALISBURY      SUNNY     84  56  38 NW9       29.97S
BAY BRIDGE AP* MOSUNNY   86  59  39 SW8       29.96S
CAMBRIDGE*     SUNNY     84  59  42 NW6       29.97S
EASTON*        MOSUNNY   84  57  39 CALM      30.00F

$$

MDZ017>025-252200-
SOUTHERN MARYLAND

CITY           SKY/WX    TMP DP  RH WIND       PRES   REMARKS
PATUXENT RIVER PTSUNNY   85  60  42 W8        29.97F
ST INIGOES     MOSUNNY   84  59  42 SW7       29.97F
LEONARDTOWN*   SUNNY     82  59  44 SW6       29.99S

$$

MDZ003>005-252200-
NORTH CENTRAL MARYLAND

CITY           SKY/WX    TMP DP  RH WIND       PRES   REMARKS
FREDERICK*     MOSUNNY   84  41  21 W14G20    30.02S
HAGERSTOWN APT MOSUNNY   79  49  34 NW13      30.00S
WESTMINSTER*   SUNNY     84  52  32 W15G21    29.99F

$$

MDZ501>502-252200-
WESTERN MARYLAND

CITY           SKY/WX    TMP DP  RH WIND       PRES   REMARKS
OAKLAND*       NOT AVBL
CUMBERLAND*    SUNNY     77  45  31 NW8G16    30.08S

$$

VAZ025>031-252200-
SHENANDOAH VALLEY

CITY           SKY/WX    TMP DP  RH WIND       PRES   REMARKS
WINCHESTER*    MOSUNNY   79  45  29 NW13G18   30.02S
FRONT ROYAL*   MOSUNNY   81  45  28 W9        30.02S
LURAY*         SUNNY     81  43  26 NW15G22   30.03S
NEW MARKET*    SUNNY     80  41  25 W9        30.02S
STAUNTON*      MOSUNNY   79  46  30 NW8       30.06S
WAYNESBORO*    PTSUNNY   78  46  32 W7        30.05F

$$

WVZ021-048>050-054>055-252200-
EASTERN WEST VIRGINIA PANHANDLE

CITY           SKY/WX    TMP DP  RH WIND       PRES   REMARKS
MARTINSBURG    SUNNY     79  46  31 W12       30.00F
PETERSBURG*    MOSUNNY   79  47  32 W12G21    30.07S

$$

VAZ036>039-050-252200-
CENTRAL FOOTHILLS

CITY           SKY/WX    TMP DP  RH WIND       PRES   REMARKS
CHARLOTTESVILL MOSUNNY   85  50  29 SW9       30.00F
CULPEPER*      MOSUNNY   83  54  36 W6        30.00S
ORANGE*        MOSUNNY   81  55  41 W3        30.00S
GORDONSVILLE*  MOSUNNY   83  53  35 SW3       30.00S
WARRENTON*     MOSUNNY   87  44  22 NW8       29.99S

$$

VAZ055>057-252200-
NORTH AND CENTRAL PIEDMONT

CITY           SKY/WX    TMP DP  RH WIND       PRES   REMARKS
FREDERICKSBRG* MOSUNNY   84  58  40 NW8       29.97S
STAFFORD*      MOSUNNY   85  53  33 W5        30.02S

$$

NCZ024-NYZ072-PAZ021-071-VAZ022-071-252200-
OTHER REGIONAL OBSERVATIONS

CITY           SKY/WX    TMP DP  RH WIND       PRES   REMARKS
NEW YORK CITY  SUNNY     77  61  57 E5        29.95F
PHILADELPHIA   PTSUNNY   85  55  35 W12G21    29.94S
PITTSBURGH     LGT RAIN  69  54  58 W14G23    30.03F
ROANOKE        PTSUNNY   78  48  34 W14       30.10S
RICHMOND       MOSUNNY   83  58  42 SW6       29.99F
RALEIGH        PTSUNNY   83  63  50 NW8       30.05F

$$

ANZ530>537-252200-
MARINE OBSERVATIONS

STATION/POSITION TIME  TEMP    WIND        PRES
                       AIR SEA DIR/SP/G
                 (UTC) (F)     (DEG/KT/KT) (MB)
THOMAS PT LIGHT  2100   80 78  160/  8/  9   N/A
BALT KEY BRIDGE  2048   82     280/ 17/ 20 1014.0F
COVE POINT       2048   80     160/  5/  9 1015.5F
LEWISETTA        2048   81 80   50/  4/  5 1015.0F
SOLOMONS ISLAND  2048   84 79  250/  3/  6   N/A
PINEY POINT      2048          350/  3/  4   N/A

$$





USA.gov is the U.S. government's official web portal to all federal, state and local government web resources and services.